When you browse on this site, cookies collect data to enhance your experience and personalize the content and advertising you see.
Visit our Privacy Policy to learn more. By continuing to use the site, you agree to this use of cookies and data.
  • In United Kingdom
  • List of Countries
  • For 7 days
  • Water Temperature
  • Satellite Maps
  • Weather Map
  • Weather Widgets
  • user-avatar
    Login

    Hourly Weather Harare

    Today, 24 March, Sunday

    Time Temperature Precipitation Wind Pressure Humidity
    00:00 +17°C° 0 mm 2 mps 639 mmHg 92%
    01:00 +16°C° 0 mm 2 mps 639 mmHg 93%
    02:00 +16°C° 0 mm 2 mps 638 mmHg 94%
    03:00 +16°C° 0 mm 2 mps 638 mmHg 94%
    04:00 +15°C° 0 mm 2 mps 638 mmHg 94%
    05:00 +15°C° 0 mm 2 mps 638 mmHg 94%
    06:00 +16°C° 0 mm 2 mps 639 mmHg 89%
    07:00 +17°C° 0 mm 2 mps 639 mmHg 84%
    08:00 +19°C° 0 mm 2 mps 640 mmHg 77%
    09:00 +21°C° 0 mm 2 mps 641 mmHg 68%
    10:00 +24°C° 0 mm 2 mps 641 mmHg 59%
    11:00 +26°C° 0 mm 2 mps 642 mmHg 51%
    12:00 +27°C° 0.2 mm 2 mps 641 mmHg 50%
    13:00 +27°C° 0.2 mm 1 mps 640 mmHg 50%
    14:00 +27°C° 0.2 mm 1 mps 640 mmHg 49%
    15:00 +26°C° 0.2 mm 1 mps 639 mmHg 53%
    16:00 +26°C° 0.2 mm 1 mps 639 mmHg 56%
    17:00 +25°C° 0.2 mm 1 mps 638 mmHg 60%
    18:00 +24°C° 0.1 mm 1 mps 638 mmHg 66%
    19:00 +21°C° 0.1 mm 2 mps 638 mmHg 71%
    20:00 +19°C° 0.1 mm 2 mps 638 mmHg 77%
    21:00 +19°C° 0 mm 2 mps 638 mmHg 80%
    22:00 +19°C° 0 mm 1 mps 638 mmHg 83%
    23:00 +18°C° 0 mm 1 mps 638 mmHg 85%

    Tomorrow, 25 March, Monday

    Time Temperature Precipitation Wind Pressure Humidity
    00:00 +18°C° 0 mm 1 mps 638 mmHg 86%
    01:00 +16°C° 0 mm 1 mps 638 mmHg 88%
    02:00 +16°C° 0 mm 1 mps 638 mmHg 89%
    03:00 +15°C° 0 mm 0 mps 638 mmHg 90%
    04:00 +14°C° 0 mm 0 mps 638 mmHg 91%
    05:00 +14°C° 0 mm 0 mps 637 mmHg 92%
    06:00 +16°C° 0 mm 0 mps 638 mmHg 86%
    07:00 +18°C° 0 mm 0 mps 639 mmHg 79%
    08:00 +19°C° 0 mm 0 mps 640 mmHg 73%
    09:00 +22°C° 0 mm 0 mps 640 mmHg 63%
    10:00 +26°C° 0 mm 1 mps 641 mmHg 53%
    11:00 +29°C° 0 mm 1 mps 641 mmHg 42%
    12:00 +30°C° 0 mm 1 mps 641 mmHg 38%
    13:00 +31°C° 0 mm 1 mps 640 mmHg 34%
    14:00 +32°C° 0 mm 1 mps 640 mmHg 30%
    15:00 +30°C° 0 mm 1 mps 639 mmHg 33%
    16:00 +29°C° 0 mm 1 mps 638 mmHg 37%
    17:00 +28°C° 0 mm 1 mps 637 mmHg 40%
    18:00 +26°C° 0 mm 1 mps 638 mmHg 44%
    19:00 +24°C° 0 mm 1 mps 638 mmHg 49%
    20:00 +23°C° 0 mm 1 mps 638 mmHg 53%
    21:00 +22°C° 0 mm 1 mps 638 mmHg 57%
    22:00 +21°C° 0 mm 1 mps 638 mmHg 61%
    23:00 +20°C° 0 mm 1 mps 638 mmHg 65%

    Day after tomorrow, 26 March, Tuesday

    Time Temperature Precipitation Wind Pressure Humidity
    00:00 +20°C° 0 mm 1 mps 638 mmHg 71%
    01:00 +19°C° 0 mm 1 mps 638 mmHg 78%
    02:00 +19°C° 0 mm 1 mps 637 mmHg 84%
    03:00 +18°C° 0 mm 1 mps 637 mmHg 86%
    04:00 +18°C° 0 mm 1 mps 637 mmHg 89%
    05:00 +16°C° 0 mm 0 mps 637 mmHg 92%
    06:00 +19°C° 0 mm 1 mps 638 mmHg 86%
    07:00 +21°C° 0 mm 1 mps 639 mmHg 79%
    08:00 +22°C° 0 mm 1 mps 640 mmHg 73%
    09:00 +25°C° 0 mm 1 mps 641 mmHg 61%
    10:00 +27°C° 0 mm 1 mps 641 mmHg 50%
    11:00 +29°C° 0 mm 2 mps 642 mmHg 38%
    12:00 +30°C° 0 mm 2 mps 641 mmHg 36%
    13:00 +31°C° 0 mm 3 mps 641 mmHg 33%
    14:00 +32°C° 0 mm 4 mps 640 mmHg 30%
    15:00 +30°C° 0 mm 3 mps 640 mmHg 34%
    16:00 +29°C° 0 mm 3 mps 639 mmHg 38%
    17:00 +28°C° 0 mm 3 mps 639 mmHg 42%
    18:00 +26°C° 0 mm 3 mps 639 mmHg 48%
    19:00 +24°C° 0 mm 3 mps 640 mmHg 54%
    20:00 +22°C° 0 mm 3 mps 640 mmHg 60%
    21:00 +21°C° 0 mm 2 mps 640 mmHg 65%
    22:00 +20°C° 0 mm 2 mps 640 mmHg 70%
    23:00 +19°C° 0 mm 1 mps 640 mmHg 75%

    27 March, Wednesday

    Time Temperature Precipitation Wind Pressure Humidity
    00:00 +19°C° 0 mm 1 mps 640 mmHg 76%
    01:00 +18°C° 0 mm 1 mps 640 mmHg 77%
    02:00 +17°C° 0 mm 2 mps 640 mmHg 78%
    03:00 +17°C° 0 mm 2 mps 639 mmHg 81%
    04:00 +16°C° 0 mm 2 mps 639 mmHg 84%
    05:00 +16°C° 0 mm 2 mps 639 mmHg 87%
    06:00 +17°C° 0 mm 3 mps 640 mmHg 82%
    07:00 +19°C° 0 mm 3 mps 641 mmHg 77%
    08:00 +20°C° 0 mm 4 mps 642 mmHg 71%
    09:00 +22°C° 0 mm 4 mps 643 mmHg 63%
    10:00 +25°C° 0 mm 4 mps 643 mmHg 55%
    11:00 +27°C° 0 mm 4 mps 644 mmHg 47%
    12:00 +28°C° 0.1 mm 3 mps 643 mmHg 47%
    13:00 +28°C° 0.1 mm 3 mps 642 mmHg 47%
    14:00 +28°C° 0.1 mm 3 mps 642 mmHg 46%
    15:00 +27°C° 0.6 mm 3 mps 641 mmHg 52%
    16:00 +26°C° 0.6 mm 3 mps 641 mmHg 57%
    17:00 +25°C° 0.6 mm 3 mps 641 mmHg 63%
    18:00 +22°C° 0.6 mm 3 mps 641 mmHg 70%
    19:00 +21°C° 0.6 mm 3 mps 641 mmHg 78%
    20:00 +19°C° 0.6 mm 3 mps 641 mmHg 85%
    21:00 +18°C° 0 mm 3 mps 641 mmHg 88%
    22:00 +18°C° 0 mm 3 mps 641 mmHg 90%
    23:00 +17°C° 0 mm 2 mps 642 mmHg 93%

    28 March, Thursday

    Time Temperature Precipitation Wind Pressure Humidity
    00:00 +17°C° 0 mm 2 mps 641 mmHg 93%
    01:00 +17°C° 0 mm 2 mps 641 mmHg 94%
    02:00 +16°C° 0 mm 2 mps 640 mmHg 94%
    03:00 +16°C° 0 mm 2 mps 640 mmHg 94%
    04:00 +16°C° 0 mm 2 mps 640 mmHg 94%
    05:00 +16°C° 0 mm 1 mps 640 mmHg 94%
    06:00 +18°C° 0 mm 1 mps 641 mmHg 88%
    07:00 +19°C° 0 mm 1 mps 642 mmHg 83%
    08:00 +21°C° 0 mm 1 mps 642 mmHg 78%
    09:00 +23°C° 0 mm 1 mps 643 mmHg 68%
    10:00 +26°C° 0 mm 1 mps 643 mmHg 58%
    11:00 +28°C° 0 mm 1 mps 644 mmHg 48%
    12:00 +28°C° 0.1 mm 1 mps 643 mmHg 46%
    13:00 +28°C° 0.1 mm 1 mps 642 mmHg 45%
    14:00 +29°C° 0.1 mm 1 mps 641 mmHg 44%
    15:00 +28°C° 0 mm 2 mps 641 mmHg 47%
    16:00 +27°C° 0 mm 2 mps 640 mmHg 50%
    17:00 +27°C° 0 mm 2 mps 640 mmHg 54%
    18:00 +25°C° 0.1 mm 2 mps 640 mmHg 62%
    19:00 +23°C° 0.1 mm 1 mps 640 mmHg 70%
    20:00 +21°C° 0.1 mm 1 mps 640 mmHg 78%
    21:00 +20°C° 0 mm 1 mps 640 mmHg 80%
    22:00 +20°C° 0 mm 1 mps 640 mmHg 82%
    23:00 +20°C° 0 mm 1 mps 640 mmHg 85%

    29 March, Friday

    Time Temperature Precipitation Wind Pressure Humidity
    00:00 +19°C° 0 mm 1 mps 639 mmHg 86%
    01:00 +19°C° 0 mm 1 mps 639 mmHg 88%
    02:00 +18°C° 0 mm 1 mps 639 mmHg 90%
    03:00 +16°C° 0 mm 0 mps 639 mmHg 91%
    04:00 +15°C° 0 mm 0 mps 639 mmHg 92%
    05:00 +15°C° 0 mm 0 mps 639 mmHg 92%
    06:00 +17°C° 0 mm 0 mps 639 mmHg 87%
    07:00 +18°C° 0 mm 0 mps 640 mmHg 81%
    08:00 +20°C° 0 mm 0 mps 641 mmHg 75%
    09:00 +24°C° 0 mm 1 mps 641 mmHg 63%
    10:00 +26°C° 0 mm 1 mps 642 mmHg 51%
    11:00 +29°C° 0 mm 2 mps 642 mmHg 39%
    12:00 +29°C° 0 mm 2 mps 642 mmHg 35%
    13:00 +30°C° 0 mm 2 mps 641 mmHg 31%
    14:00 +31°C° 0 mm 3 mps 641 mmHg 27%
    15:00 +30°C° 0 mm 3 mps 640 mmHg 31%
    16:00 +29°C° 0 mm 3 mps 640 mmHg 35%
    17:00 +28°C° 0 mm 3 mps 640 mmHg 38%
    18:00 +26°C° 0 mm 3 mps 640 mmHg 46%
    19:00 +24°C° 0 mm 3 mps 639 mmHg 53%
    20:00 +21°C° 0 mm 3 mps 639 mmHg 60%
    21:00 +20°C° 0 mm 2 mps 639 mmHg 65%
    22:00 +19°C° 0 mm 2 mps 639 mmHg 70%
    23:00 +19°C° 0 mm 1 mps 639 mmHg 75%
    Show more